SCP
1 1 1 1 2 2 2 1 1 0 0 0 0 0 0 0 0 0 0 0 0 0 0 -0 -0 -0 -0 -0 -0 -0 -0 -0 0 0 0 0 0 0 0 0 0 0 0
0 0 1 1 2 2 2 1 1 0 0 0 0 0 0 0 0 0 0 0 0 0 0 0 -0 -0 -0 -0 -0 -0 -0 -0 0 0 0 0 0 0 0 0 0 0 0
0 0 1 1 2 2 2 1 1 0 0 0 0 0 0 0 0 0 0 0 0 0 0 0 0 -0 -0 -0 -0 -0 -0 -0 -0 -0 -0 0 0 0 0 0 0 0 0
0 0 0 1 1 2 2 2 1 0 0 0 0 0 0 0 0 0 0 0 0 0 0 0 0 0 0 -0 -0 -0 -0 -0 -0 -0 0 0 0 0 0 0 0 0 0
0 0 0 1 1 2 2 2 1 0 0 0 0 0 0 0 0 0 0 0 0 0 0 0 0 0 0 0 -0 -0 -0 -0 -0 -0 -0 -0 0 0 0 0 0 0 0
0 0 0 0 1 1 2 2 1 1 1 0 0 0 0 0 0 0 0 0 0 0 0 0 0 0 0 0 0 -0 -0 -0 -0 -0 -0 -0 -0 -0 0 0 0 0 0
0 0 0 0 0 0 0 2 2 1 0 0 0 0 0 0 0 0 0 0 0 0 0 0 0 0 0 0 0 -0 -0 -0 -0 -0 -0 -0 -0 -0 -0 -0 0 0 0
0 0 0 0 0 0 0 1 1 1 1 0 1 0 0 0 0 0 0 0 0 0 0 0 0 0 0 0 0 0 0 0 -0 -0 -0 -0 -0 -0 -0 -0 0 0 0
0 0 0 0 0 0 1 1 1 1 1 0 0 0 0 0 0 0 0 0 0 0 0 0 0 0 0 0 0 0 0 0 0 0 -0 -0 -0 -0 -0 -0 -0 0 0
0 0 0 0 0 0 0 1 1 1 1 1 0 0 0 0 0 0 0 0 0 0 0 0 0 0 0 0 0 0 0 0 0 0 0 0 -0 -0 -0 -0 -0 -0 -0
0 0 0 0 0 0 0 0 1 1 1 1 0 0 0 0 0 0 0 0 0 0 0 0 0 0 0 0 0 0 0 0 0 0 0 0 -0 -0 -0 -0 -0 -0 -0
0 0 0 0 0 0 0 0 0 0 0 1 1 1 1 0 0 0 0 0 0 0 0 0 0 0 0 0 0 0 0 0 0 0 0 0 0 0 -0 -0 -0 -0 -0
0 0 0 0 0 0 0 0 0 0 0 0 0 1 1 0 0 0 0 0 0 0 0 0 0 0 0 0 0 0 0 0 0 0 0 0 0 0 0 0 -0 -0 -0
0 0 0 0 0 0 0 0 0 0 0 0 0 0 1 1 0 0 0 0 0 0 0 0 0 0 0 0 0 0 0 0 0 0 0 0 0 0 0 0 0 -0 -0
0 0 0 0 0 0 0 0 0 0 0 0 0 0 0 1 0 0 0 0 0 0 0 0 0 0 0 0 0 0 0 0 0 0 0 0 0 0 0 0 0 0 0
0 0 0 0 0 0 0 0 0 0 0 0 0 0 0 0 0 0 0 0 0 0 0 0 0 0 0 0 0 0 0 0 0 0 0 0 0 0 0 0 0 0 0
0 0 0 0 0 0 0 0 0 0 0 0 0 0 0 0 0 0 0 0 0 0 0 0 0 0 0 0 0 0 0 0 0 0 0 0 0 0 0 0 0 0 0
-0 0 0 0 0 0 0 0 0 0 0 0 0 0 0 0 0 0 0 0 0 0 0 0 0 0 0 0 0 0 0 0 0 0 0 0 0 0 0 0 0 0 0
-0 -0 0 0 0 0 0 0 0 0 0 0 0 0 0 0 0 0 0 0 0 0 0 0 0 0 0 0 0 0 0 0 0 0 0 0 0 0 0 0 0 0 0
-0 -0 0 0 0 0 0 0 0 0 0 0 0 0 0 0 0 0 0 0 0 0 0 0 0 0 0 0 0 0 0 0 0 0 0 0 0 0 0 0 0 0 0
-0 -0 -0 0 0 0 0 0 -0 0 0 0 0 0 0 0 0 0 0 0 0 0 0 0 0 0 0 0 0 0 0 0 0 0 0 0 0 0 0 0 0 0 0
0 -0 -0 -0 -0 0 -0 -0 0 0 0 0 0 0 0 0 0 0 0 0 0 0 0 0 0 0 0 0 0 0 0 0 0 0 0 0 0 0 0 0 0 0 0
0 -0 -0 0 -0 -0 -0 0 -0 0 0 0 0 0 0 0 0 0 0 0 0 0 0 0 0 0 0 0 0 0 0 0 0 0 0 0 0 0 0 0 0 0 0
0 -0 -0 -0 0 -0 -0 -0 -0 0 0 0 0 0 0 0 0 0 0 0 0 0 0 0 0 0 0 0 0 0 0 0 0 0 0 0 0 0 0 0 0 0 0
-0 0 0 -0 -0 -0 -0 -0 -0 0 0 0 0 0 0 0 0 0 0 0 0 0 0 0 0 0 0 0 0 0 0 0 0 0 0 0 0 0 0 0 0 0 0
0 0 -0 -0 -0 -0 -0 -0 -0 -0 -0 0 -0 0 -0 0 0 0 0 0 0 0 0 0 0 0 0 0 0 0 0 0 0 0 0 0 0 0 0 0 0 0 0
Wind_Speed_500mb
50 53 62 64 64 66 69 66 64 59 54 51 50 48 46 42 37 35 31 28 30 30 30 31 35 36 36 41 43 40 32 36 31 29 28 30 30 29 29 32 30 29 28
54 53 58 69 70 70 72 73 71 67 60 57 55 53 50 46 42 38 31 30 27 30 31 30 33 33 33 35 38 43 41 37 32 29 27 29 30 31 30 30 35 35 34
61 61 66 64 77 74 75 76 77 74 66 62 59 57 54 51 48 43 36 32 29 28 31 33 32 34 33 33 38 37 41 40 35 29 28 27 29 33 35 33 35 37 37
71 64 72 78 69 83 81 80 83 80 75 69 66 62 59 55 50 44 38 32 30 29 28 33 34 35 34 32 38 40 41 44 40 36 33 30 30 32 37 38 38 37 40
77 73 70 71 78 76 95 85 87 85 82 77 72 66 64 60 54 48 44 35 33 30 27 28 34 35 34 32 39 40 42 44 44 40 39 36 33 32 28 33 37 39 38
75 79 78 72 72 76 94 93 89 88 88 85 77 70 71 68 61 58 50 40 41 40 35 30 32 36 35 35 39 38 43 45 46 43 43 41 37 35 31 27 27 40 41
70 80 77 72 62 89 93 94 95 91 88 89 79 75 72 73 71 66 61 57 48 46 44 40 36 31 36 36 38 40 44 45 46 46 46 45 45 41 35 32 27 30 42
61 76 75 76 67 69 96 93 98 87 89 90 87 74 51 71 75 73 70 64 52 51 52 51 41 36 35 36 38 41 43 45 44 43 44 46 49 48 44 38 36 33 39
56 65 77 72 62 55 71 101 86 96 83 87 90 56 37 38 67 74 78 70 65 60 59 58 50 44 41 39 39 40 43 45 47 46 43 46 50 51 49 44 44 42 36
60 65 74 72 63 51 60 79 77 126 95 82 87 91 65 53 43 43 81 81 74 72 66 66 61 55 50 48 45 43 42 41 45 48 48 47 52 49 48 49 49 48 43
63 61 62 69 62 41 52 62 80 88 113 92 101 101 77 71 56 49 51 81 79 80 76 70 67 61 56 52 50 49 47 47 45 46 49 52 53 55 57 54 53 51 51
63 57 52 60 58 44 35 65 65 97 69 89 98 102 110 87 78 67 53 62 86 84 81 76 73 69 65 59 53 47 44 46 49 50 50 52 56 59 60 60 59 59 61
56 55 50 44 47 41 37 35 59 78 99 81 98 101 103 106 93 81 64 49 56 65 80 82 77 72 69 63 57 49 43 43 43 45 49 51 52 54 61 64 62 64 63
57 50 47 43 38 39 37 38 38 51 87 53 72 92 97 98 104 87 82 65 55 48 52 63 66 72 70 66 58 51 48 47 49 48 46 48 51 54 57 62 66 67 68
49 38 26 26 35 39 40 36 40 42 66 91 61 72 86 95 98 98 93 80 70 50 60 59 54 49 50 52 53 54 53 50 51 55 54 51 52 53 57 61 67 67 67
34 18 29 33 34 42 42 41 42 50 54 85 82 62 77 81 90 89 92 90 90 79 63 66 67 63 61 60 59 57 54 49 59 63 64 59 55 56 56 59 63 68 68
12 10 18 29 28 35 42 46 45 47 53 64 81 72 58 79 85 86 87 86 88 84 82 83 76 66 62 56 51 52 50 52 52 62 68 66 59 59 61 61 61 63 67
30 18 17 15 25 27 38 39 52 55 59 66 70 58 50 62 71 74 79 82 71 71 75 84 82 76 71 64 56 54 52 51 46 46 53 52 46 52 63 70 65 66 66
67 62 57 48 41 39 22 26 32 47 53 61 65 68 51 47 60 71 78 79 70 77 79 75 79 78 70 69 71 71 63 48 48 55 52 64 67 66 64 66 72 74 72
86 83 87 81 76 66 66 63 57 49 43 35 25 21 15 21 24 23 53 63 72 79 76 73 73 80 78 70 64 59 62 55 50 51 53 58 64 69 72 72 73 77 80
82 89 91 98 92 89 79 73 66 72 73 70 58 35 34 35 29 23 14 20 34 40 60 44 56 44 41 69 64 57 61 62 57 60 55 61 59 65 60 62 70 80 79
81 84 88 88 93 92 77 72 71 77 77 72 67 60 52 44 42 42 38 29 21 15 17 11 17 30 23 19 24 28 24 30 35 59 59 59 57 59 66 56 60 72 73
75 79 77 77 84 87 77 71 69 70 73 70 60 50 49 42 37 37 36 37 26 22 21 17 10 5 13 21 26 23 19 28 31 37 46 52 52 59 60 69 67 69 60
80 81 82 78 75 77 74 66 61 58 59 64 62 61 50 46 36 33 27 24 28 24 24 21 20 10 12 17 27 28 28 28 26 34 39 44 52 54 56 57 57 57 61
78 79 75 75 73 70 69 65 60 59 60 61 61 57 50 42 31 25 19 23 26 24 20 22 18 17 15 16 17 19 20 21 21 27 34 39 41 49 52 60 63 68 73
70 70 73 75 70 70 65 58 54 56 59 59 57 55 56 52 45 41 37 33 28 29 24 18 16 16 17 20 21 22 26 25 22 15 16 30 30 36 35 53 51 43 46
Wind_Direction_500mb
282 274 257 251 245 240 235 233 234 232 230 227 226 226 226 228 226 222 224 233 221 220 219 219 220 223 222 219 215 206 202 206 209 207 209 212 216 219 223 218 211 214 219
268 269 271 255 247 243 240 236 234 234 231 229 227 227 225 224 223 220 222 224 218 223 225 225 221 220 220 222 227 215 204 211 213 217 220 216 219 217 217 213 201 211 216
262 256 266 269 251 244 242 239 235 235 233 228 226 228 225 223 220 220 219 221 222 224 226 226 226 221 218 222 220 216 214 216 217 224 235 228 224 218 220 221 215 211 214
258 254 249 253 262 243 238 237 236 235 234 229 225 224 223 218 216 217 219 227 230 233 231 226 225 222 222 226 217 215 221 220 222 228 228 235 232 226 232 223 224 220 213
251 250 248 246 249 256 231 233 234 233 235 230 225 224 221 217 216 212 211 222 241 239 239 232 228 228 227 222 218 224 221 224 229 231 235 238 238 236 239 233 233 234 216
250 243 245 240 246 249 245 233 230 232 235 233 226 223 223 220 220 219 213 222 236 239 235 231 225 227 230 231 224 230 228 228 234 236 240 237 235 239 241 249 244 226 222
257 244 244 246 238 240 247 233 230 225 230 232 225 224 224 223 223 223 219 218 230 233 235 235 229 225 227 233 231 231 228 232 239 237 238 238 236 241 244 249 252 242 228
263 249 246 244 236 249 252 243 224 220 227 229 219 219 218 223 223 223 225 224 223 230 229 234 228 229 228 230 232 235 236 237 239 243 243 238 237 239 244 245 245 246 241
267 253 246 246 247 234 236 235 228 229 218 223 224 205 200 214 220 221 224 223 225 225 226 229 231 233 235 237 235 234 235 239 242 241 242 240 238 240 243 245 245 246 246
279 259 247 244 248 238 238 234 237 228 224 214 222 215 215 209 196 209 225 224 225 227 230 231 232 235 239 241 241 240 239 243 243 242 242 241 240 238 241 244 245 247 245
294 276 257 246 245 247 234 237 232 221 231 228 228 221 209 208 212 208 213 219 223 227 231 232 234 237 240 244 245 244 241 241 243 243 243 245 244 242 241 242 244 246 247
301 291 271 249 240 237 232 233 245 239 234 237 232 230 217 209 211 210 211 218 223 228 233 236 236 239 240 243 243 241 240 241 241 245 248 247 247 244 243 242 245 247 248
296 288 285 261 236 233 233 239 235 236 225 246 236 230 227 220 219 219 221 225 230 234 237 238 239 241 243 242 240 238 240 239 239 240 243 245 248 245 244 244 243 246 249
292 285 276 257 227 213 229 235 254 239 229 241 248 236 232 229 223 220 223 224 229 234 235 237 238 238 239 241 242 240 246 244 241 240 242 245 246 247 248 247 244 247 249
294 283 268 256 219 207 215 229 238 249 239 223 254 236 239 234 231 230 229 226 228 228 232 235 237 235 233 234 238 245 248 246 245 244 245 245 246 249 250 251 248 246 251
291 280 257 239 231 218 222 227 241 225 229 224 253 252 244 239 237 235 233 232 231 231 239 249 249 251 249 251 250 241 246 255 251 244 242 244 248 249 250 252 252 250 249
321 294 233 224 230 225 222 221 232 225 229 222 221 242 256 251 241 238 238 235 233 235 241 247 251 250 255 248 235 234 241 259 263 248 241 242 247 248 248 251 251 252 253
59 55 76 211 230 248 251 235 228 211 213 216 221 234 252 244 236 239 239 238 235 241 242 251 252 250 250 242 241 236 254 268 257 248 240 232 240 248 250 249 250 251 252
65 67 72 89 106 107 139 194 198 192 197 198 200 213 233 230 203 222 228 230 234 241 246 248 250 254 247 245 249 251 258 255 253 248 249 244 255 261 257 253 251 251 250
60 65 65 75 81 86 93 105 110 126 134 148 168 172 167 212 233 206 224 230 233 236 240 243 248 249 251 240 248 256 249 254 251 247 249 252 255 255 255 256 254 252 251
57 52 64 70 72 78 80 84 82 90 94 94 90 94 84 70 62 51 176 192 220 221 228 231 238 235 240 230 241 245 249 245 245 251 253 261 263 267 252 264 257 250 255
55 59 57 54 62 65 69 74 79 82 77 80 84 85 86 72 64 49 47 53 63 57 87 169 228 252 254 240 246 227 225 239 242 250 265 257 270 270 275 262 260 257 263
58 61 61 61 52 54 61 61 62 70 77 83 86 80 72 76 65 61 46 37 41 30 45 53 70 34 332 306 304 302 272 265 270 259 263 264 266 270 271 275 274 264 255
52 49 53 55 57 51 50 53 58 61 65 66 68 72 72 70 64 62 57 56 60 57 53 42 38 42 338 323 324 318 310 297 298 284 280 283 274 266 264 264 262 260 257
50 51 51 54 53 51 45 45 48 52 58 59 61 67 70 77 72 67 59 58 54 47 49 45 35 32 15 350 347 338 320 317 303 290 286 286 287 283 270 268 268 266 262
47 46 47 47 47 47 45 44 44 48 51 52 53 51 49 46 44 39 37 38 45 39 35 28 25 9 355 345 345 339 339 345 341 331 305 311 300 301 298 285 281 282 279
Wind_Speed_850mb
50 53 62 64 64 66 69 66 64 59 54 51 50 48 46 42 37 35 31 28 30 30 30 31 35 36 36 41 43 40 32 36 31 29 28 30 30 29 29 32 30 29 28
54 53 58 69 70 70 72 73 71 67 60 57 55 53 50 46 42 38 31 30 27 30 31 30 33 33 33 35 38 43 41 37 32 29 27 29 30 31 30 30 35 35 34
61 61 66 64 77 74 75 76 77 74 66 62 59 57 54 51 48 43 36 32 29 28 31 33 32 34 33 33 38 37 41 40 35 29 28 27 29 33 35 33 35 37 37
71 64 72 78 69 83 81 80 83 80 75 69 66 62 59 55 50 44 38 32 30 29 28 33 34 35 34 32 38 40 41 44 40 36 33 30 30 32 37 38 38 37 40
77 73 70 71 78 76 95 85 87 85 82 77 72 66 64 60 54 48 44 35 33 30 27 28 34 35 34 32 39 40 42 44 44 40 39 36 33 32 28 33 37 39 38
75 79 78 72 72 76 94 93 89 88 88 85 77 70 71 68 61 58 50 40 41 40 35 30 32 36 35 35 39 38 43 45 46 43 43 41 37 35 31 27 27 40 41
70 80 77 72 62 89 93 94 95 91 88 89 79 75 72 73 71 66 61 57 48 46 44 40 36 31 36 36 38 40 44 45 46 46 46 45 45 41 35 32 27 30 42
61 76 75 76 67 69 96 93 98 87 89 90 87 74 51 71 75 73 70 64 52 51 52 51 41 36 35 36 38 41 43 45 44 43 44 46 49 48 44 38 36 33 39
56 65 77 72 62 55 71 101 86 96 83 87 90 56 37 38 67 74 78 70 65 60 59 58 50 44 41 39 39 40 43 45 47 46 43 46 50 51 49 44 44 42 36
60 65 74 72 63 51 60 79 77 126 95 82 87 91 65 53 43 43 81 81 74 72 66 66 61 55 50 48 45 43 42 41 45 48 48 47 52 49 48 49 49 48 43
63 61 62 69 62 41 52 62 80 88 113 92 101 101 77 71 56 49 51 81 79 80 76 70 67 61 56 52 50 49 47 47 45 46 49 52 53 55 57 54 53 51 51
63 57 52 60 58 44 35 65 65 97 69 89 98 102 110 87 78 67 53 62 86 84 81 76 73 69 65 59 53 47 44 46 49 50 50 52 56 59 60 60 59 59 61
56 55 50 44 47 41 37 35 59 78 99 81 98 101 103 106 93 81 64 49 56 65 80 82 77 72 69 63 57 49 43 43 43 45 49 51 52 54 61 64 62 64 63
57 50 47 43 38 39 37 38 38 51 87 53 72 92 97 98 104 87 82 65 55 48 52 63 66 72 70 66 58 51 48 47 49 48 46 48 51 54 57 62 66 67 68
49 38 26 26 35 39 40 36 40 42 66 91 61 72 86 95 98 98 93 80 70 50 60 59 54 49 50 52 53 54 53 50 51 55 54 51 52 53 57 61 67 67 67
34 18 29 33 34 42 42 41 42 50 54 85 82 62 77 81 90 89 92 90 90 79 63 66 67 63 61 60 59 57 54 49 59 63 64 59 55 56 56 59 63 68 68
12 10 18 29 28 35 42 46 45 47 53 64 81 72 58 79 85 86 87 86 88 84 82 83 76 66 62 56 51 52 50 52 52 62 68 66 59 59 61 61 61 63 67
30 18 17 15 25 27 38 39 52 55 59 66 70 58 50 62 71 74 79 82 71 71 75 84 82 76 71 64 56 54 52 51 46 46 53 52 46 52 63 70 65 66 66
67 62 57 48 41 39 22 26 32 47 53 61 65 68 51 47 60 71 78 79 70 77 79 75 79 78 70 69 71 71 63 48 48 55 52 64 67 66 64 66 72 74 72
86 83 87 81 76 66 66 63 57 49 43 35 25 21 15 21 24 23 53 63 72 79 76 73 73 80 78 70 64 59 62 55 50 51 53 58 64 69 72 72 73 77 80
82 89 91 98 92 89 79 73 66 72 73 70 58 35 34 35 29 23 14 20 34 40 60 44 56 44 41 69 64 57 61 62 57 60 55 61 59 65 60 62 70 80 79
81 84 88 88 93 92 77 72 71 77 77 72 67 60 52 44 42 42 38 29 21 15 17 11 17 30 23 19 24 28 24 30 35 59 59 59 57 59 66 56 60 72 73
75 79 77 77 84 87 77 71 69 70 73 70 60 50 49 42 37 37 36 37 26 22 21 17 10 5 13 21 26 23 19 28 31 37 46 52 52 59 60 69 67 69 60
80 81 82 78 75 77 74 66 61 58 59 64 62 61 50 46 36 33 27 24 28 24 24 21 20 10 12 17 27 28 28 28 26 34 39 44 52 54 56 57 57 57 61
78 79 75 75 73 70 69 65 60 59 60 61 61 57 50 42 31 25 19 23 26 24 20 22 18 17 15 16 17 19 20 21 21 27 34 39 41 49 52 60 63 68 73
70 70 73 75 70 70 65 58 54 56 59 59 57 55 56 52 45 41 37 33 28 29 24 18 16 16 17 20 21 22 26 25 22 15 16 30 30 36 35 53 51 43 46
Wind_Direction_850mb
282 274 257 251 245 240 235 233 234 232 230 227 226 226 226 228 226 222 224 233 221 220 219 219 220 223 222 219 215 206 202 206 209 207 209 212 216 219 223 218 211 214 219
268 269 271 255 247 243 240 236 234 234 231 229 227 227 225 224 223 220 222 224 218 223 225 225 221 220 220 222 227 215 204 211 213 217 220 216 219 217 217 213 201 211 216
262 256 266 269 251 244 242 239 235 235 233 228 226 228 225 223 220 220 219 221 222 224 226 226 226 221 218 222 220 216 214 216 217 224 235 228 224 218 220 221 215 211 214
258 254 249 253 262 243 238 237 236 235 234 229 225 224 223 218 216 217 219 227 230 233 231 226 225 222 222 226 217 215 221 220 222 228 228 235 232 226 232 223 224 220 213
251 250 248 246 249 256 231 233 234 233 235 230 225 224 221 217 216 212 211 222 241 239 239 232 228 228 227 222 218 224 221 224 229 231 235 238 238 236 239 233 233 234 216
250 243 245 240 246 249 245 233 230 232 235 233 226 223 223 220 220 219 213 222 236 239 235 231 225 227 230 231 224 230 228 228 234 236 240 237 235 239 241 249 244 226 222
257 244 244 246 238 240 247 233 230 225 230 232 225 224 224 223 223 223 219 218 230 233 235 235 229 225 227 233 231 231 228 232 239 237 238 238 236 241 244 249 252 242 228
263 249 246 244 236 249 252 243 224 220 227 229 219 219 218 223 223 223 225 224 223 230 229 234 228 229 228 230 232 235 236 237 239 243 243 238 237 239 244 245 245 246 241
267 253 246 246 247 234 236 235 228 229 218 223 224 205 200 214 220 221 224 223 225 225 226 229 231 233 235 237 235 234 235 239 242 241 242 240 238 240 243 245 245 246 246
279 259 247 244 248 238 238 234 237 228 224 214 222 215 215 209 196 209 225 224 225 227 230 231 232 235 239 241 241 240 239 243 243 242 242 241 240 238 241 244 245 247 245
294 276 257 246 245 247 234 237 232 221 231 228 228 221 209 208 212 208 213 219 223 227 231 232 234 237 240 244 245 244 241 241 243 243 243 245 244 242 241 242 244 246 247
301 291 271 249 240 237 232 233 245 239 234 237 232 230 217 209 211 210 211 218 223 228 233 236 236 239 240 243 243 241 240 241 241 245 248 247 247 244 243 242 245 247 248
296 288 285 261 236 233 233 239 235 236 225 246 236 230 227 220 219 219 221 225 230 234 237 238 239 241 243 242 240 238 240 239 239 240 243 245 248 245 244 244 243 246 249
292 285 276 257 227 213 229 235 254 239 229 241 248 236 232 229 223 220 223 224 229 234 235 237 238 238 239 241 242 240 246 244 241 240 242 245 246 247 248 247 244 247 249
294 283 268 256 219 207 215 229 238 249 239 223 254 236 239 234 231 230 229 226 228 228 232 235 237 235 233 234 238 245 248 246 245 244 245 245 246 249 250 251 248 246 251
291 280 257 239 231 218 222 227 241 225 229 224 253 252 244 239 237 235 233 232 231 231 239 249 249 251 249 251 250 241 246 255 251 244 242 244 248 249 250 252 252 250 249
321 294 233 224 230 225 222 221 232 225 229 222 221 242 256 251 241 238 238 235 233 235 241 247 251 250 255 248 235 234 241 259 263 248 241 242 247 248 248 251 251 252 253
59 55 76 211 230 248 251 235 228 211 213 216 221 234 252 244 236 239 239 238 235 241 242 251 252 250 250 242 241 236 254 268 257 248 240 232 240 248 250 249 250 251 252
65 67 72 89 106 107 139 194 198 192 197 198 200 213 233 230 203 222 228 230 234 241 246 248 250 254 247 245 249 251 258 255 253 248 249 244 255 261 257 253 251 251 250
60 65 65 75 81 86 93 105 110 126 134 148 168 172 167 212 233 206 224 230 233 236 240 243 248 249 251 240 248 256 249 254 251 247 249 252 255 255 255 256 254 252 251
57 52 64 70 72 78 80 84 82 90 94 94 90 94 84 70 62 51 176 192 220 221 228 231 238 235 240 230 241 245 249 245 245 251 253 261 263 267 252 264 257 250 255
55 59 57 54 62 65 69 74 79 82 77 80 84 85 86 72 64 49 47 53 63 57 87 169 228 252 254 240 246 227 225 239 242 250 265 257 270 270 275 262 260 257 263
58 61 61 61 52 54 61 61 62 70 77 83 86 80 72 76 65 61 46 37 41 30 45 53 70 34 332 306 304 302 272 265 270 259 263 264 266 270 271 275 274 264 255
52 49 53 55 57 51 50 53 58 61 65 66 68 72 72 70 64 62 57 56 60 57 53 42 38 42 338 323 324 318 310 297 298 284 280 283 274 266 264 264 262 260 257
50 51 51 54 53 51 45 45 48 52 58 59 61 67 70 77 72 67 59 58 54 47 49 45 35 32 15 350 347 338 320 317 303 290 286 286 287 283 270 268 268 266 262
47 46 47 47 47 47 45 44 44 48 51 52 53 51 49 46 44 39 37 38 45 39 35 28 25 9 355 345 345 339 339 345 341 331 305 311 300 301 298 285 281 282 279